SR9WXM Weather Reports


Display with metric or nautical units.
time (UTC)temp
F
wind
direction
speed
MPH
gust
MPH
rain 1hr
in
rain 24hr
in
rain mn
in
humidity
%
barometer
mb
20260509164329 42 49 2.0 3.0 0.00 0.00 0.00 100
20260509163918 43 61 2.0 4.0 0.00 0.00 0.00 100
20260509163518 43 50 3.0 7.0 0.00 0.00 0.00 100
20260509163119 43 50 3.0 6.0 0.00 0.00 0.00 100
20260509162719 43 59 4.0 8.0 0.00 0.00 0.00 100
20260509162319 43 47 4.0 6.0 0.00 0.00 0.00 100
20260509161917 43 66 4.0 7.0 0.00 0.00 0.00 100
20260509161517 43 49 3.0 5.0 0.00 0.00 0.00 100
20260509161117 43 50 3.0 7.0 0.00 0.00 0.00 100
20260509160717 43 42 3.0 4.0 0.00 0.00 0.00 100
20260509160317 43 86 3.0 6.0 0.00 0.00 0.00 100
20260509155915 43 57 3.0 7.0 0.00 0.00 0.00 100
20260509155515 43 55 6.0 8.0 0.00 0.00 0.00 100
20260509155115 43 37 4.0 18.0 0.00 0.00 0.00 100
20260509154715 43 65 4.0 7.0 0.00 0.00 0.00 100
20260509154315 43 19 5.0 8.0 0.00 0.00 0.00 100
20260509153913 43 48 4.0 7.0 0.00 0.00 0.00 100
20260509153514 43 58 4.0 9.0 0.00 0.00 0.00 100
20260509153114 44 82 5.0 10.0 0.00 0.00 0.00 100
20260509152711 44 25 2.0 5.0 0.00 0.00 0.00 100
20260509152311 44 52 3.0 5.0 0.00 0.00 0.00 100
20260509151910 43 49 3.0 7.0 0.00 0.00 0.00 100
20260509151509 43 45 3.0 5.0 0.00 0.00 0.00 100
20260509151109 44 51 4.0 7.0 0.00 0.00 0.00 100
20260509150709 44 70 3.0 11.0 0.00 0.00 0.00 100
20260509150309 44 36 2.0 4.0 0.00 0.00 0.00 100
20260509145907 44 45 3.0 4.0 0.00 0.00 0.00 100
20260509145507 44 55 3.0 8.0 0.00 0.00 0.00 100
20260509145107 44 32 2.0 3.0 0.00 0.00 0.00 100
20260509144707 44 56 2.0 6.0 0.00 0.00 0.00 100
20260509144307 44 81 2.0 4.0 0.00 0.00 0.00 100
20260509143905 44 46 3.0 7.0 0.00 0.00 0.00 100
20260509143505 44 57 4.0 6.0 0.00 0.00 0.00 100
20260509143105 44 40 2.0 5.0 0.00 0.00 0.00 100
20260509142705 43 53 5.0 7.0 0.00 0.00 0.00 100
20260509142307 44 49 6.0 10.0 0.00 0.00 0.00 100
20260509141903 44 43 5.0 7.0 0.00 0.00 0.00 100
20260509141503 44 40 3.0 6.0 0.00 0.00 0.00 100
20260509141103 44 43 2.0 3.0 0.00 0.00 0.00 100
20260509140704 44 56 3.0 4.0 0.00 0.00 0.00 100
20260509140256 44 41 3.0 6.0 0.00 0.00 0.00 100
20260509135853 44 61 2.0 4.0 0.00 0.00 0.00 100
20260509135453 44 36 3.0 5.0 0.00 0.00 0.00 100
20260509135053 45 35 2.0 3.0 0.00 0.00 0.00 100
20260509134653 44 50 2.0 4.0 0.00 0.00 0.00 100
20260509133851 44 77 3.0 6.0 0.00 0.00 0.00 100
20260509133451 44 46 4.0 6.0 0.00 0.00 0.00 100
20260509132653 44 41 4.0 7.0 0.00 0.00 0.00 100
20260509132253 44 63 4.0 6.0 0.00 0.00 0.00 100
20260509131850 44 50 4.0 7.0 0.00 0.00 0.00 100
20260509131450 44 322 3.0 5.0 0.00 0.00 0.00 100
20260509131050 44 29 4.0 6.0 0.00 0.00 0.00 100
20260509130650 44 26 2.0 5.0 0.00 0.00 0.00 100
20260509130250 44 30 1.0 4.0 0.00 0.00 0.00 100
20260509125848 44 46 2.0 4.0 0.00 0.00 0.00 100
20260509125448 44 123 1.0 3.0 0.00 0.00 0.00 100
20260509125048 44 84 0.0 1.0 0.00 0.00 0.00 100
20260509124648 44 87 1.0 3.0 0.00 0.00 0.00 100
20260509124248 44 68 2.0 4.0 0.00 0.00 0.00 100
20260509123846 44 86 3.0 5.0 0.00 0.00 0.00 100
20260509123446 44 86 3.0 7.0 0.00 0.00 0.00 100
20260509123046 44 67 3.0 5.0 0.00 0.00 0.00 100
20260509122646 44 38 2.0 5.0 0.00 0.00 0.00 100
20260509122246 44 79 2.0 5.0 0.00 0.00 0.00 100
20260509121844 44 76 1.0 2.0 0.00 0.00 0.00 100
20260509121443 44 72 2.0 4.0 0.00 0.00 0.00 100
20260509121048 44 104 2.0 3.0 0.00 0.00 0.00 100
20260509120643 43 100 3.0 4.0 0.00 0.00 0.00 100
20260509120243 43 74 3.0 5.0 0.00 0.00 0.00 100
20260509115841 43 81 5.0 9.0 0.00 0.00 0.00 100
20260509115441 43 72 2.0 4.0 0.00 0.00 0.00 100
20260509115041 43 71 4.0 6.0 0.00 0.00 0.00 100
20260509114643 43 81 3.0 7.0 0.00 0.00 0.00 100
20260509114241 43 92 3.0 5.0 0.00 0.00 0.00 100
20260509113839 43 81 2.0 5.0 0.00 0.00 0.00 100
20260509113439 43 59 2.0 3.0 0.00 0.00 0.00 100
20260509113039 43 66 2.0 6.0 0.00 0.00 0.00 100
20260509112630 44 25 2.0 2.0 0.00 0.00 0.00 100
20260509112230 44 82 3.0 4.0 0.00 0.00 0.00 100
20260509111828 44 63 2.0 3.0 0.00 0.00 0.00 100
20260509111426 44 69 2.0 5.0 0.00 0.00 0.00 100
20260509111026 44 74 2.0 4.0 0.00 0.00 0.00 100
20260509110626 44 41 2.0 4.0 0.00 0.00 0.00 100
20260509110226 44 37 1.0 2.0 0.00 0.00 0.00 100
20260509105823 43 69 1.0 3.0 0.00 0.00 0.00 100
20260509105424 43 53 3.0 5.0 0.00 0.00 0.00 100
20260509105024 43 57 3.0 7.0 0.00 0.00 0.00 100
20260509104624 43 48 4.0 5.0 0.00 0.00 0.00 100
20260509104224 43 12 3.0 5.0 0.00 0.00 0.00 100
20260509103822 43 43 2.0 6.0 0.00 0.00 0.00 100
20260509103422 42 53 1.0 2.0 0.00 0.00 0.00 100
20260509103022 42 73 3.0 5.0 0.00 0.00 0.00 100
20260509102622 42 41 4.0 6.0 0.00 0.00 0.00 100
20260509102222 42 52 2.0 6.0 0.00 0.00 0.00 100
20260509101820 42 48 4.0 8.0 0.00 0.00 0.00 100
20260509101420 42 359 4.0 7.0 0.00 0.00 0.00 100
20260509101020 42 39 3.0 6.0 0.00 0.00 0.00 100
20260509100620 41 31 5.0 8.0 0.00 0.00 0.00 100
20260509100220 41 65 3.0 6.0 0.00 0.00 0.00 100
20260509095818 41 24 4.0 6.0 0.00 0.00 0.00 100
20260509095418 41 348 4.0 8.0 0.00 0.00 0.00 100
20260509095018 41 12 4.0 6.0 0.00 0.00 0.00 100
20260509094618 41 9 4.0 6.0 0.00 0.00 0.00 100
20260509094218 41 26 5.0 7.0 0.00 0.00 0.00 100
20260509093816 41 16 6.0 8.0 0.00 0.00 0.00 100
20260509093416 41 29 5.0 7.0 0.00 0.00 0.00 100
20260509093016 41 17 5.0 6.0 0.00 0.00 0.00 100
20260509092616 41 30 3.0 7.0 0.00 0.00 0.00 100
20260509092216 41 340 5.0 8.0 0.00 0.00 0.00 100
20260509091814 41 35 3.0 6.0 0.00 0.00 0.00 100
20260509091413 42 14 5.0 8.0 0.00 0.00 0.00 100
20260509091014 42 347 4.0 8.0 0.00 0.00 0.00 100
20260509090613 42 22 4.0 7.0 0.00 0.00 0.00 100
20260509090214 42 27 4.0 5.0 0.00 0.00 0.00 100
20260509085812 42 29 4.0 6.0 0.00 0.00 0.00 100
20260509085412 42 26 2.0 2.0 0.00 0.00 0.00 100
20260509085004 42 358 2.0 5.0 0.00 0.00 0.00 100
20260509084605 42 14 3.0 6.0 0.00 0.00 0.00 100
20260509084205 42 234 2.0 5.0 0.00 0.00 0.00 100
20260509083803 42 8 6.0 9.0 0.00 0.00 0.00 100
20260509083403 41 11 4.0 5.0 0.00 0.00 0.00 100
20260509083002 41 323 2.0 4.0 0.00 0.00 0.00 100
20260509082602 41 8 4.0 5.0 0.00 0.00 0.00 100
20260509082202 41 19 5.0 7.0 0.00 0.00 0.00 100
20260509081800 41 24 2.0 3.0 0.00 0.00 0.00 100
20260509081400 41 16 4.0 7.0 0.00 0.00 0.00 100
20260509081000 41 4 3.0 5.0 0.00 0.00 0.00 100
20260509080600 41 31 2.0 3.0 0.00 0.00 0.00 100
20260509080200 41 328 3.0 6.0 0.00 0.00 0.00 100
20260509075758 41 5 1.0 4.0 0.00 0.00 0.00 100
20260509075358 41 67 3.0 6.0 0.00 0.00 0.00 100
20260509074958 41 28 3.0 8.0 0.00 0.00 0.00 100
20260509074558 41 28 3.0 7.0 0.00 0.00 0.00 100
20260509074158 41 20 3.0 7.0 0.00 0.00 0.00 100
20260509073756 41 10 3.0 4.0 0.00 0.00 0.00 100
20260509073356 41 18 4.0 6.0 0.00 0.00 0.00 100
20260509072956 41 7 2.0 6.0 0.00 0.00 0.00 100
20260509072556 41 53 2.0 4.0 0.00 0.00 0.00 100
20260509072156 40 46 2.0 5.0 0.00 0.00 0.00 100
20260509071754 40 42 2.0 3.0 0.00 0.00 0.00 100
20260509071354 40 21 3.0 6.0 0.00 0.00 0.00 100
20260509070955 40 315 2.0 4.0 0.00 0.00 0.00 100
20260509070552 40 27 2.0 4.0 0.00 0.00 0.00 100
20260509070154 40 60 1.0 3.0 0.00 0.00 0.00 100
20260509065751 40 48 3.0 5.0 0.00 0.00 0.00 100
20260509065351 40 27 2.0 4.0 0.00 0.00 0.00 100
20260509064951 40 56 4.0 6.0 0.00 0.00 0.00 100
20260509064550 40 69 2.0 4.0 0.00 0.00 0.00 100
20260509064150 39 47 3.0 7.0 0.00 0.00 0.00 100
20260509063748 39 63 3.0 4.0 0.00 0.00 0.00 100
20260509063348 39 61 2.0 5.0 0.00 0.00 0.00 100
20260509062948 39 38 2.0 5.0 0.00 0.00 0.00 100
20260509062548 39 50 4.0 6.0 0.00 0.00 0.00 100
20260509062149 39 68 4.0 7.0 0.00 0.00 0.00 100
20260509061737 39 64 4.0 6.0 0.00 0.00 0.00 100
20260509061337 39 51 4.0 6.0 0.00 0.00 0.00 100
20260509060937 39 62 2.0 4.0 0.00 0.00 0.00 100
20260509060537 38 45 4.0 6.0 0.00 0.00 0.00 100
20260509060137 38 55 4.0 6.0 0.00 0.00 0.00 100
20260509055735 38 44 4.0 6.0 0.00 0.00 0.00 100
20260509055334 38 34 4.0 6.0 0.00 0.00 0.00 100
20260509054934 39 36 4.0 6.0 0.00 0.00 0.00 100
20260509054534 39 53 3.0 4.0 0.00 0.00 0.00 100
20260509054134 39 52 3.0 6.0 0.00 0.00 0.00 100
20260509053733 38 45 5.0 9.0 0.00 0.00 0.00 100
20260509053332 38 64 3.0 6.0 0.00 0.00 0.00 100
20260509052932 38 53 4.0 7.0 0.00 0.00 0.00 100
20260509052532 38 51 3.0 6.0 0.00 0.00 0.00 100
20260509051730 38 45 3.0 6.0 0.00 0.00 0.00 100
20260509051330 38 50 5.0 23.0 0.00 0.00 0.00 100
20260509050930 38 40 3.0 6.0 0.00 0.00 0.00 100
20260509050530 38 54 3.0 4.0 0.00 0.00 0.00 100
20260509050130 38 45 4.0 5.0 0.00 0.00 0.00 100
20260509045728 38 56 2.0 6.0 0.00 0.00 0.00 100
20260509045328 38 55 3.0 7.0 0.00 0.00 0.00 100
20260509044927 38 66 3.0 6.0 0.00 0.00 0.00 100
20260509044527 38 59 3.0 6.0 0.00 0.00 0.00 100
20260509044127 38 65 2.0 3.0 0.00 0.00 0.00 100
20260509043725 38 72 3.0 6.0 0.00 0.00 0.00 100
20260509043325 38 61 2.0 6.0 0.00 0.00 0.00 100
20260509042925 38 79 3.0 5.0 0.00 0.00 0.00 100
20260509042525 38 59 4.0 6.0 0.00 0.00 0.00 100
20260509042125 38 53 3.0 6.0 0.00 0.00 0.00 100
20260509041723 38 60 3.0 5.0 0.00 0.00 0.00 100
20260509041324 38 60 3.0 7.0 0.00 0.00 0.00 100
20260509040923 38 67 4.0 6.0 0.00 0.00 0.00 100
20260509040523 38 53 3.0 4.0 0.00 0.00 0.00 100
20260509040123 38 62 3.0 5.0 0.00 0.00 0.00 100
20260509035721 38 62 2.0 4.0 0.00 0.00 0.00 100
20260509035321 38 49 2.0 4.0 0.00 0.00 0.00 100
20260509034921 38 65 2.0 4.0 0.00 0.00 0.00 100
20260509034521 38 56 3.0 4.0 0.00 0.00 0.00 100
20260509034114 38 58 2.0 4.0 0.00 0.00 0.00 100
20260509033712 38 65 2.0 4.0 0.00 0.00 0.00 100
20260509033312 38 71 2.0 4.0 0.00 0.00 0.00 100
20260509032912 38 65 3.0 5.0 0.00 0.00 0.00 100
20260509032512 38 67 3.0 5.0 0.00 0.00 0.00 100
20260509032112 38 62 2.0 5.0 0.00 0.00 0.00 100
20260509031710 37 65 5.0 6.0 0.00 0.00 0.00 100
20260509031310 37 64 2.0 4.0 0.00 0.00 0.00 100
20260509030910 37 75 4.0 6.0 0.00 0.00 0.00 100
20260509030510 37 66 3.0 5.0 0.00 0.00 0.00 100
20260509030110 37 78 4.0 6.0 0.00 0.00 0.00 100
20260509025709 37 82 4.0 6.0 0.00 0.00 0.00 100
20260509025307 37 80 4.0 6.0 0.00 0.00 0.00 100
20260509024906 37 87 4.0 6.0 0.00 0.00 0.00 100
20260509024507 38 77 4.0 7.0 0.00 0.00 0.00 100
20260509024106 38 75 4.0 6.0 0.00 0.00 0.00 100
20260509023704 38 85 4.0 7.0 0.00 0.00 0.00 100
20260509023304 38 84 5.0 7.0 0.00 0.00 0.00 100
20260509022904 38 82 5.0 7.0 0.00 0.00 0.00 100
20260509022504 38 77 5.0 8.0 0.00 0.00 0.00 100
20260509022104 38 79 5.0 6.0 0.00 0.00 0.00 100
20260509021702 38 81 4.0 6.0 0.00 0.00 0.00 100
20260509021302 38 79 4.0 6.0 0.00 0.00 0.00 100
20260509020902 38 77 4.0 7.0 0.00 0.00 0.00 100
20260509020502 38 77 5.0 9.0 0.00 0.00 0.00 100
20260509015700 38 80 6.0 8.0 0.00 0.00 0.00 100
20260509015301 38 72 2.0 5.0 0.00 0.00 0.00 100
20260509014901 38 69 3.0 4.0 0.00 0.00 0.00 100
20260509014501 39 65 3.0 5.0 0.00 0.00 0.00 100
20260509014101 39 70 3.0 5.0 0.00 0.00 0.00 100
20260509013659 39 61 2.0 4.0 0.00 0.00 0.00 100
20260509013259 39 65 2.0 5.0 0.00 0.00 0.00 100
20260509012859 39 73 2.0 5.0 0.00 0.00 0.00 100
20260509012459 40 70 2.0 3.0 0.00 0.00 0.00 100
20260509012059 40 76 2.0 4.0 0.00 0.00 0.00 100
20260509011657 40 68 1.0 4.0 0.00 0.00 0.00 100
20260509011257 40 69 1.0 3.0 0.00 0.00 0.00 100
20260509010857 40 65 2.0 3.0 0.00 0.00 0.00 100
20260509010448 40 68 1.0 2.0 0.00 0.00 0.00 100
20260509010048 40 68 2.0 3.0 0.00 0.00 0.00 100
20260509005646 40 63 2.0 4.0 0.00 0.00 0.00 100
20260509005246 40 56 1.0 2.0 0.00 0.00 0.00 100
20260509004846 40 65 1.0 3.0 0.00 0.00 0.00 100
20260509004447 40 60 1.0 2.0 0.00 0.00 0.00 100
20260509004047 40 68 2.0 4.0 0.00 0.00 0.00 100
20260509003645 40 55 1.0 2.0 0.00 0.00 0.00 100
20260509003245 40 53 1.0 3.0 0.00 0.00 0.00 100
20260509002845 40 51 0.0 1.0 0.00 0.00 0.00 100
20260509002445 40 80 2.0 4.0 0.00 0.00 0.00 100
20260509002045 40 66 2.0 3.0 0.00 0.00 0.00 100
20260509001643 40 77 2.0 4.0 0.00 0.00 0.00 100
20260509001242 40 76 3.0 5.0 0.00 0.00 0.00 100
20260509000842 40 69 2.0 4.0 0.00 0.00 0.00 100
20260509000442 40 81 2.0 4.0 0.00 0.00 0.00 100
20260509000042 40 89 1.0 2.0 0.00 0.00 0.00 100
20260508235643 40 86 1.0 2.0 0.00 0.00 0.00 100
20260508235240 40 88 2.0 3.0 0.00 0.00 0.00 100
20260508234840 40 86 1.0 3.0 0.00 0.00 0.00 100
20260508234440 40 86 1.0 2.0 0.00 0.00 0.00 100
20260508234040 40 88 1.0 2.0 0.00 0.00 0.00 100
20260508233638 40 88 1.0 3.0 0.00 0.00 0.00 100
20260508233237 40 89 1.0 2.0 0.00 0.00 0.00 100
20260508232838 40 86 0.0 1.0 0.00 0.00 0.00 100
20260508232438 40 86 0.0 0.0 0.00 0.00 0.00 100
20260508232038 40 88 0.0 1.0 0.00 0.00 0.00 100
20260508231636 40 86 1.0 1.0 0.00 0.00 0.00 100
20260508231236 40 88 1.0 2.0 0.00 0.00 0.00 100
20260508230836 40 88 1.0 2.0 0.00 0.00 0.00 100
20260508230436 40 86 1.0 1.0 0.00 0.00 0.00 100
20260508230036 40 89 1.0 1.0 0.00 0.00 0.00 100
20260508225634 40 61 2.0 4.0 0.00 0.00 0.00 100
20260508225234 40 72 1.0 2.0 0.00 0.00 0.00 100
20260508224834 40 87 1.0 2.0 0.00 0.00 0.00 100
20260508224432 40 97 2.0 3.0 0.00 0.00 0.00 100
20260508224033 40 79 2.0 3.0 0.00 0.00 0.00 100
20260508223630 40 65 1.0 2.0 0.00 0.00 0.00 100
20260508223230 40 65 1.0 1.0 0.00 0.00 0.00 100
20260508222822 40 72 2.0 3.0 0.00 0.00 0.00 100
20260508222422 40 68 1.0 2.0 0.00 0.00 0.00 100
20260508222022 40 69 1.0 2.0 0.00 0.00 0.00 100
20260508221620 39 68 2.0 3.0 0.00 0.00 0.00 100
20260508221220 39 82 2.0 4.0 0.00 0.00 0.00 100
20260508220819 39 76 1.0 3.0 0.00 0.00 0.00 100
20260508220420 39 81 2.0 3.0 0.00 0.00 0.00 100
20260508220020 39 68 1.0 2.0 0.00 0.00 0.00 100
20260508215618 39 72 1.0 3.0 0.00 0.00 0.00 100
20260508215218 39 80 2.0 3.0 0.00 0.00 0.00 100
20260508214818 39 80 1.0 2.0 0.00 0.00 0.00 100
20260508214418 39 64 1.0 2.0 0.00 0.00 0.00 100
20260508214018 39 47 1.0 3.0 0.00 0.00 0.00 100
20260508213616 39 65 1.0 2.0 0.00 0.00 0.00 100
20260508213216 39 69 1.0 2.0 0.00 0.00 0.00 100
20260508212816 39 59 2.0 4.0 0.00 0.00 0.00 100
20260508212415 39 64 1.0 2.0 0.00 0.00 0.00 100
20260508212015 39 55 2.0 4.0 0.00 0.00 0.00 100
20260508211613 39 71 1.0 2.0 0.00 0.00 0.00 100
20260508211213 39 68 1.0 2.0 0.00 0.00 0.00 100
20260508210813 39 68 2.0 3.0 0.00 0.00 0.00 100
20260508210413 39 71 1.0 3.0 0.00 0.00 0.00 100
20260508210013 40 71 1.0 1.0 0.00 0.00 0.00 100
20260508205611 40 40 1.0 3.0 0.00 0.00 0.00 100
20260508205211 40 64 1.0 3.0 0.00 0.00 0.00 100
20260508204812 40 75 2.0 3.0 0.00 0.00 0.00 100
20260508204412 40 63 1.0 1.0 0.00 0.00 0.00 100
20260508204012 40 60 1.0 3.0 0.00 0.00 0.00 100
20260508203610 40 51 1.0 1.0 0.00 0.00 0.00 100
20260508203210 40 50 1.0 3.0 0.00 0.00 0.00 100
20260508202810 40 53 1.0 2.0 0.00 0.00 0.00 100
20260508202410 40 38 2.0 4.0 0.00 0.00 0.00 100
20260508202010 40 27 1.0 4.0 0.00 0.00 0.00 100
20260508201608 40 30 0.0 0.0 0.00 0.00 0.00 100
20260508201208 40 27 1.0 2.0 0.00 0.00 0.00 100
20260508200808 40 27 1.0 2.0 0.00 0.00 0.00 100
20260508200408 40 59 1.0 2.0 0.00 0.00 0.00 100
20260508200008 40 63 1.0 2.0 0.00 0.00 0.00 100
20260508195557 41 58 2.0 3.0 0.00 0.00 0.00 100
20260508195157 41 95 1.0 3.0 0.00 0.00 0.00 100
20260508194757 41 59 2.0 3.0 0.00 0.00 0.00 100
20260508194357 41 50 1.0 3.0 0.00 0.00 0.00 100
20260508193956 41 48 1.0 2.0 0.00 0.00 0.00 100
20260508193554 41 54 2.0 4.0 0.00 0.00 0.00 100
20260508193154 41 58 3.0 4.0 0.00 0.00 0.00 100
20260508192754 41 65 2.0 3.0 0.00 0.00 0.00 100
20260508192354 41 61 2.0 3.0 0.00 0.00 0.00 100
20260508191954 41 61 2.0 3.0 0.00 0.00 0.00 100
20260508191552 41 50 2.0 4.0 0.00 0.00 0.00 100
20260508191152 41 86 2.0 2.0 0.00 0.00 0.00 100
20260508190752 41 69 2.0 5.0 0.00 0.00 0.00 100
20260508190352 41 67 1.0 2.0 0.00 0.00 0.00 100
20260508185952 41 84 2.0 3.0 0.00 0.00 0.00 100
20260508185549 41 79 2.0 4.0 0.00 0.00 0.00 100
20260508185149 41 77 1.0 3.0 0.00 0.00 0.00 100
20260508184750 41 75 1.0 4.0 0.00 0.00 0.00 100
20260508184350 41 61 1.0 2.0 0.00 0.00 0.00 100
20260508183950 41 65 2.0 4.0 0.00 0.00 0.00 100
20260508183547 41 49 1.0 2.0 0.00 0.00 0.00 100
20260508183145 41 74 1.0 2.0 0.00 0.00 0.00 100
20260508182745 41 77 1.0 3.0 0.00 0.00 0.00 100
20260508182345 42 77 0.0 1.0 0.00 0.00 0.00 100
20260508181945 42 74 0.0 1.0 0.00 0.00 0.00 100
20260508181543 42 77 1.0 2.0 0.00 0.00 0.00 100
20260508181143 42 75 1.0 3.0 0.00 0.00 0.00 100
20260508180743 42 77 0.0 1.0 0.00 0.00 0.00 100
20260508180342 41 77 1.0 2.0 0.00 0.00 0.00 100
20260508175942 42 74 2.0 3.0 0.00 0.00 0.00 100
20260508175540 41 77 2.0 2.0 0.00 0.00 0.00 100
20260508175140 42 74 2.0 4.0 0.00 0.00 0.00 100
20260508174740 42 74 1.0 3.0 0.00 0.00 0.00 100
20260508174340 42 77 1.0 2.0 0.00 0.00 0.00 100
20260508173940 42 67 2.0 4.0 0.00 0.00 0.00 100
20260508173538 42 67 2.0 5.0 0.00 0.00 0.00 100
20260508173138 42 50 3.0 4.0 0.00 0.00 0.00 100
20260508172738 42 69 1.0 2.0 0.00 0.00 0.00 100
20260508172338 42 54 3.0 6.0 0.00 0.00 0.00 100
20260508171931 42 64 2.0 3.0 0.00 0.00 0.00 100
20260508171529 42 68 3.0 5.0 0.00 0.00 0.00 100
20260508171129 42 74 2.0 4.0 0.00 0.00 0.00 100
20260508170729 42 68 2.0 5.0 0.00 0.00 0.00 100
20260508170329 42 57 3.0 5.0 0.00 0.00 0.00 100
20260508165929 42 48 3.0 6.0 0.00 0.00 0.00 100
20260508165527 42 31 3.0 4.0 0.00 0.00 0.00 100
20260508165127 42 80 1.0 2.0 0.00 0.00 0.00 100
20260508164727 42 73 2.0 3.0 0.00 0.00 0.00 100